This is the latest recevied weather packets stored in our database for station/object KN6KS. If no packets are shown the sender has not sent any weather packets the latest 10 day(s).
| Time | Temp. | Humidity | Pressure | Rain* | Wind** | Luminosity | Snow |
|---|---|---|---|---|---|---|---|
| 1777951117 | 11.67° C | 69% | 1012 hPa | 0 mm | - | 0 W/m² | - |
| 1777950813 | 11.67° C | 69% | 1012.1 hPa | 0 mm | - | 0 W/m² | - |
| 1777950511 | 11.67° C | 68% | 1011.9 hPa | 0 mm | - | 0 W/m² | - |
| 1777950207 | 11.67° C | 68% | 1012 hPa | 0 mm | - | 0 W/m² | - |
| 1777949902 | 12.22° C | 68% | 1011.9 hPa | 0 mm | - | 0 W/m² | - |
| 1777949600 | 12.22° C | 68% | 1011.7 hPa | 0 mm | - | 0 W/m² | - |
| 1777949298 | 12.22° C | 67% | 1011.7 hPa | 0 mm | - | 0 W/m² | - |
| 1777948996 | 12.22° C | 67% | 1011.5 hPa | 0 mm | - | 0 W/m² | - |
| 1777948693 | 12.22° C | 66% | 1011.7 hPa | 0 mm | - | 2 W/m² | - |
| 1777948389 | 12.22° C | 66% | 1011.6 hPa | 0 mm | - | 4 W/m² | - |
| 1777948087 | 12.78° C | 65% | 1011.8 hPa | 0 mm | - | 8 W/m² | - |
| 1777947784 | 12.78° C | 64% | 1011.7 hPa | 0 mm | - | 10 W/m² | - |
| 1777947481 | 12.78° C | 64% | 1011.5 hPa | 0 mm | - | 12 W/m² | - |
| 1777947177 | 12.78° C | 64% | 1011.5 hPa | 0 mm | - | 17 W/m² | - |
| 1777946873 | 12.78° C | 64% | 1011.5 hPa | 0 mm | - | 26 W/m² | - |
| 1777946568 | 12.78° C | 64% | 1011.4 hPa | 0 mm | - | 35 W/m² | - |
| 1777946266 | 12.78° C | 64% | 1011.5 hPa | 0 mm | - | 35 W/m² | - |
| 1777945963 | 12.78° C | 63% | 1011.3 hPa | 0 mm | - | 35 W/m² | - |
| 1777945660 | 13.33° C | 63% | 1011.6 hPa | 0 mm | - | 38 W/m² | - |
| 1777945358 | 13.33° C | 62% | 1011.6 hPa | 0 mm | - | 49 W/m² | - |
| 1777945054 | 13.33° C | 62% | 1011.7 hPa | 0 mm | - | 62 W/m² | - |
| 1777944751 | 13.89° C | 61% | 1011.7 hPa | 0 mm | - | 74 W/m² | - |
| 1777944449 | 13.89° C | 61% | 1011.9 hPa | 0 mm | - | 85 W/m² | - |
| 1777944146 | 13.89° C | 60% | 1011.9 hPa | 0 mm | - | 128 W/m² | - |
| 1777943842 | 13.89° C | 60% | 1011.6 hPa | 0 mm | - | 123 W/m² | - |
* Rain latest hour (hover to see other rain measurements)
** Current wind speed in m/s (hover to see current wind gust speed)